Погода в Гикаловском

Россия / Чеченская Республика     43°13′29″N   45°43′56″E
темп.,
°C
ветер,
м/с
пор.,
м/с
влажн.,
%
обл.,
%
осадки,
мм/ч
давл.,
гПа
погр.,
м
7 мая, пт
пт700:00+10с016698 0.0 101452
03:00+10з116848 0.0 101438
06:00+11юз016795 0.0 1015109
09:00+17сз2250100 0.0 1016622
12:00+21сз2345100 0.0 10161213
15:00+23ссз34345 0.0 10161689
18:00+20ссз22435 0.0 1017550
21:00+16ююз225779 0.0 101919
8 мая, сб
сб800:00+14ююз11675 0.0 101928
03:00+13ююз11715 0.0 101815
06:00+14юв11660 0.0 101866
09:00+20всв46465 0.0 1016699
12:00+24всв56394 0.0 10141187
15:00+23всв5540100 0.0 10131048
18:00+19всв3458100 0.0 1012431
21:00+16св1170100 0.0 1012131
9 мая, вс
вс900:00+14с01760 0.0 101131
03:00+13юв11820 0.0 101116
06:00+14св1178100 0.0 1008104
09:00+19с2262100 0.0 1007539
12:00+22ссз33532 0.0 10081008
15:00+24сз344714 0.0 10071517
18:00+20сз4767100 0.3 1010684
21:00+10з71387100 3.6 10191084
10 мая, пн
пн1000:00+8з51289100 3.1 10221223
03:00+8зюз4788100 4.1 10221081
06:00+8зюз61085100 0.7 1023891
09:00+8зюз4878100 2.6 10221131
12:00+10з246815 3.3 1022914
15:00+15с124520 3.3 10201600
18:00+14в225297 0.0 1020568
21:00+10зюз116980 0.0 102012
11 мая, вт
вт1100:00+8юз11705 0.0 102019
03:00+7ююз12755 0.0 102044
06:00+8зюз12725 0.0 1021197
09:00+13св235659 0.0 10211099
12:00+15в225055 0.0 10201492
15:00+15вюв1356100 0.1 10201041
18:00+14всв246488 0.0 1020603
21:00+10в24795 0.0 1021206